Regional Weather Roundup
Issued by NWS

Home | Current Version | Previous Version | Text Only | Print | Product List | Glossary Off
Versions: 1 2 3 4 5 6 7 8 9 10 11 12 13 14 15 16 17 18 19 20 21 22 23 24 25 26 27 28 29 30 31 32 33 34 35 36 37 38 39 40 41 42 43 44 45 46 47 48 49 50

000
ASUS45 KABQ 211910
RWRNM
NEW MEXICO REGIONAL WEATHER ROUNDUP
NATIONAL WEATHER SERVICE ALBUQUERQUE NM
100 PM MDT THU SEP 21 2017

NOTE: "FAIR" MEANS FEW OR NO CLOUDS BELOW 12,000 FEET AGL WITH NO
       SIGNIFICANT WEATHER OR OBSTRUCTIONS TO VISION.

      THIS PRODUCT IS RELEASED AS TWO VERSIONS.  ONE VERSION NEAR
      THE TOP OF THE HOUR CONTAINING PRELIMINARY DATA FROM ALBUQUERQUE
      AND OTHER STATIONS.  A FINAL VERSION WITH ADDITIONAL DATA IS
      ISSUED ABOUT 10 MINUTES AFTER THE HOUR.

NMZ501-503-504-510>518-212000-
NORTHWEST PLATEAU/NORTHCENTRAL MOUNTAINS

CITY           SKY/WX    TMP DP  RH WIND       PRES   REMARKS
FARMINGTON     FAIR      79  27  14 S16       29.95F
LOS ALAMOS     FAIR      73  26  17 SW7G21    30.09F
SANTA FE       FAIR      77  34  21 SW17G28   30.06F
TAOS           FAIR      74  32  21 W16G26    30.10F
ANGEL FIRE     FAIR      65  31  27 SW17G28   30.15F

$$
NMZ402-403-502-505>509-212000-
WESTCENTRAL MOUNTAINS/SOUTHWEST MOUNTAINS

CITY           SKY/WX    TMP DP  RH WIND       PRES   REMARKS
GALLUP         FAIR      77  27  15 SW24G36   30.04F
GRANTS         FAIR      78  26  15 SW14G22   30.08F
SILVER CITY    FAIR      80  46  29 SW13G21   30.07F

$$
NMZ407-409-411-412-212000-
SOUTHERN DESERTS

CITY           SKY/WX    TMP DP  RH WIND       PRES   REMARKS
DEMING         FAIR      87  54  32 SW15      30.00F
LAS CRUCES     FAIR      87  50  28 W12G20    30.03F
HOLLOMAN AFB   MOSUNNY   91  42  17 SW13      30.01F
ALAMOGORDO     FAIR      86  41  20 SW15      30.00F
T OR C         FAIR      88  41  19 S17G29    29.98F

$$
NMZ519>523-212000-
CENTRAL VALLEYS/CENTRAL HIGHLANDS

CITY           SKY/WX    TMP DP  RH WIND       PRES   REMARKS
ALBUQUERQUE    FAIR      80  32  17 SW10G21   30.01F
DOUBLE EAGLE   SUNNY     81  36  19 SW12G23   30.04F
MORIARTY ARPT  FAIR      82  28  14 W16G23    30.07F
CLINES CORNERS FAIR      77  23  13 W23G32    30.11F
BELEN          FAIR      83  28  13 S10       30.01F
SOCORRO        FAIR      87  34  15 S16G22    29.98F

$$
NMZ524>526-539-540-212000-
SOUTHCENTRAL MOUNTAINS

CITY           SKY/WX    TMP DP  RH WIND       PRES   REMARKS
RUIDOSO        FAIR      77  32  19 SW24G32   30.14F

$$
NMZ527>531-212000-
NORTHEAST HIGHLANDS/NORTHEAST PLAINS

CITY           SKY/WX    TMP DP  RH WIND       PRES   REMARKS
LAS VEGAS      FAIR      76  31  19 SW22G30   30.06F
RATON          FAIR      81  27  14 SW25G32   29.94F
CLAYTON        FAIR      85  35  16 SW22G32   29.91F

$$
NMZ532>537-212000-
EASTCENTRAL PLAINS

CITY           SKY/WX    TMP DP  RH WIND       PRES   REMARKS
SANTA ROSA     FAIR      89  36  15 SW23G33   29.93F
TUCUMCARI      FAIR      93  41  16 SW21G30   29.88F
CANNON AFB     NOT AVBL
CLOVIS AIRPORT FAIR      90  47  22 SW20      29.95F

$$
NMZ028-029-538-212000-
SOUTHEAST PLAINS

CITY           SKY/WX    TMP DP  RH WIND       PRES   REMARKS
ROSWELL        FAIR      96  48  19 SW20      29.91F
ARTESIA        FAIR      93  50  22 S15G26    29.93F
CARLSBAD       FAIR      97  46  17 SW14G30   29.90F
HOBBS          MOSUNNY   93  45  18 S12G17    29.95F


$$



USA.gov is the U.S. government's official web portal to all federal, state and local government web resources and services.